Tracking 25963 objects as of 12-Aug-2022
HD Live streaming from Space Station
objects crossing your sky now

RESURS O1 DEB

Track RESURS O1 DEB now!
10-day predictions


NORAD ID: 49243
Int'l Code: 1994-074FX
Perigee: 597.5 km
Apogee: 598.4 km
Inclination: 97.9 °
Period: 96.5 minutes
Semi major axis: 6968 km
RCS: Unknown
Launch date: November 4, 1994
Source: Commonwealth of Independent States (former USSR) (CIS)
Launch site: TYURATAM MISSILE AND SPACE COMPLEX (TTMTR)

Note: This is SATELLITE DEBRIS
aabbcc
Your satellite tracking list
Your tracking list is empty




NASA's NSSDC Master Catalog

Two Line Element Set (TLE):
1 49243U 94074FX  22223.38420102  .00014499  00000-0  14234-2 0  9990
2 49243  97.9138 275.3080 0000639  63.3669 296.7615 14.92288308 54120
Source of the keplerian elements: AFSPC